Probability
0 0 0 0 0 0 0 0 0 0 0 0 1 3 6 8 8 9 12 16 21 22 24 29 32 36 43 49 50 48 46 49 50 47 41 34 29 28 29 31 29 24 20 18
0 0 0 0 0 0 0 0 0 0 0 0 1 2 4 6 8 10 13 17 19 22 27 34 38 40 44 48 50 49 48 50 52 49 43 36 32 31 31 31 30 27 23 21
0 0 0 0 0 0 0 0 0 0 0 0 0 1 3 5 7 11 14 16 17 21 29 38 42 43 44 47 51 51 53 54 54 51 43 37 35 33 32 31 31 30 27 24
0 0 0 0 0 0 0 0 0 0 0 0 0 2 5 8 11 13 15 15 16 21 29 37 42 42 43 46 50 54 57 57 54 51 44 37 35 34 32 31 32 32 28 25
0 0 0 0 0 0 0 0 0 0 0 0 0 2 7 11 14 15 17 17 19 24 32 37 41 44 46 47 50 56 61 60 56 52 46 40 37 35 34 34 36 35 30 28
0 0 0 0 0 0 0 0 0 0 0 0 0 3 9 14 15 17 20 23 24 29 34 38 41 47 52 52 52 58 63 63 59 54 48 42 39 38 37 37 37 37 36 36
0 0 0 0 0 0 0 0 0 0 0 0 0 4 13 18 18 20 23 26 29 32 35 37 41 47 54 56 56 59 63 63 59 54 48 43 40 40 39 37 37 37 39 42
0 0 0 0 0 0 0 0 0 0 0 0 1 7 15 20 20 20 22 24 27 31 34 37 40 45 51 56 58 59 61 60 55 51 47 45 42 40 38 37 37 37 39 41
0 0 0 0 0 0 0 0 0 0 0 0 2 8 16 20 19 17 16 18 23 29 32 33 37 42 47 53 57 57 58 56 51 48 46 45 43 39 37 38 38 39 39 38
0 0 0 0 0 0 0 0 0 0 0 0 2 7 16 20 17 12 11 14 20 26 28 28 32 38 42 47 52 54 55 53 48 45 44 44 42 39 37 37 39 40 39 37
0 0 0 0 0 0 0 0 0 0 1 1 2 6 14 18 15 12 11 14 19 22 24 25 28 32 36 41 46 50 51 49 44 41 41 42 42 41 38 38 38 39 38 37
0 0 0 0 0 0 0 0 0 1 2 2 2 5 9 11 12 13 13 15 18 19 21 23 26 29 33 38 42 44 44 43 40 39 40 43 44 43 41 40 38 38 37 36
0 0 0 0 0 0 0 0 0 2 3 2 1 4 6 7 8 12 15 17 19 21 21 23 26 30 34 35 34 34 35 35 35 36 39 43 45 44 42 41 39 38 37 35
0 0 0 0 0 0 0 0 0 1 1 0 0 2 5 7 8 12 17 18 20 21 23 25 29 34 36 32 28 29 31 30 31 33 37 41 44 43 42 41 40 38 35 33
0 0 0 0 0 0 0 0 0 0 0 0 1 4 8 12 14 16 19 20 21 22 24 28 33 36 36 31 29 32 33 32 31 32 34 37 40 40 40 39 38 37 34 30
0 0 0 0 0 0 0 0 0 0 0 1 4 9 14 18 20 21 23 24 25 26 27 28 32 36 36 35 34 36 37 36 34 31 31 33 34 34 34 34 33 33 31 29
1 1 1 0 0 0 1 1 1 0 1 3 8 14 17 20 23 26 28 29 28 29 29 28 29 34 37 38 37 37 37 37 33 29 27 27 27 27 26 25 26 26 26 25
3 3 1 0 0 0 1 2 2 1 2 3 9 14 16 18 24 28 31 32 30 31 31 30 29 32 36 38 37 36 35 32 28 23 21 21 22 22 23 23 23 25 25 23
4 5 2 0 0 0 0 1 2 2 2 4 8 12 13 17 24 29 33 32 33 35 37 34 31 31 34 35 35 34 33 29 23 18 17 19 21 23 25 25 25 25 25 24
4 5 4 1 0 0 1 3 3 3 4 7 11 13 14 18 25 30 32 32 34 38 39 35 31 30 33 34 34 33 31 26 20 16 16 19 23 28 30 28 26 25 24 23
4 5 4 3 1 1 3 6 9 11 14 17 19 18 18 23 28 29 28 29 32 34 35 33 30 30 33 35 35 34 30 24 19 16 17 20 25 29 30 28 26 24 23 22
3 3 4 4 4 4 6 10 16 21 25 26 25 23 22 25 27 25 24 26 29 29 30 29 29 31 34 35 35 33 30 25 21 18 19 21 24 25 25 25 25 23 21 20
1 2 3 4 5 7 8 10 16 21 25 25 24 23 23 23 23 21 23 27 29 28 27 27 28 31 32 31 31 31 29 27 24 21 21 22 22 21 20 20 19 17 16 15
0 2 4 4 5 7 8 9 11 14 16 16 16 18 19 20 20 23 27 30 31 28 26 26 27 28 28 26 27 28 27 25 23 21 20 20 19 18 17 15 12 10 9 9
1 2 4 4 5 6 6 7 8 10 10 10 10 13 15 16 18 23 28 30 29 26 24 24 24 24 23 23 24 26 24 23 20 18 18 17 16 15 14 11 7 4 4 4
3 3 3 4 4 5 5 6 8 10 9 9 9 11 14 14 15 19 24 27 26 25 23 23 22 21 20 22 24 24 22 21 19 16 15 14 13 13 12 9 5 2 1 1
Wind_Speed
14 13 14 14 15 15 15 13 12 10 8 9 9 8 8 8 9 9 9 10 10 8 9 11 11 11 11 10 9 8 7 6 4 4 4 3 3 2 3 3 3 3 2 2
13 16 17 14 13 13 15 14 14 11 9 7 8 9 9 9 9 8 8 8 9 9 8 10 11 11 11 10 9 8 7 7 6 4 3 3 3 2 3 2 3 3 2 1
16 13 12 13 13 13 14 14 14 12 9 8 10 12 11 9 9 8 6 6 9 11 10 9 10 10 11 11 10 9 8 8 7 6 4 3 2 2 3 3 3 3 3 2
15 13 12 13 13 13 13 13 14 13 12 10 11 11 9 9 10 9 8 7 8 9 11 9 9 10 10 10 10 8 8 8 6 6 5 5 4 3 3 3 3 3 3 3
14 14 13 13 12 12 12 12 12 13 13 13 12 12 7 8 9 8 7 5 6 8 9 9 8 9 9 9 10 9 8 7 7 6 5 5 4 3 3 3 4 3 3 3
16 13 12 12 11 11 12 13 13 13 12 15 13 13 7 5 7 7 8 7 5 7 7 7 7 7 7 8 9 9 8 7 7 6 6 5 4 3 4 4 4 3 2 2
15 14 12 10 11 11 11 10 8 10 9 12 10 10 5 2 3 5 6 7 6 7 7 7 7 6 7 8 8 8 8 7 7 6 5 4 4 4 4 4 3 3 2 2
12 12 11 9 11 10 10 12 11 10 9 9 9 8 3 5 5 6 6 6 6 7 7 6 6 6 7 7 7 8 8 7 7 6 4 4 4 3 3 3 3 2 2 2
10 9 7 8 9 11 12 12 13 13 13 11 7 4 2 4 6 7 7 6 6 5 6 5 4 5 5 6 6 7 8 7 6 6 5 4 3 3 3 3 2 2 2 3
10 11 12 8 9 12 13 11 8 10 10 11 8 5 2 4 5 6 6 6 7 6 6 6 4 4 5 6 6 6 6 6 6 5 4 4 4 3 2 2 2 2 2 2
10 10 12 10 11 12 12 12 10 9 10 10 9 3 0 3 4 4 5 5 5 6 6 6 6 4 3 5 6 5 6 6 5 5 4 4 4 3 3 2 2 2 2 2
7 8 10 12 11 11 11 11 10 9 10 10 9 3 2 4 3 2 3 5 6 5 5 6 6 6 4 5 6 5 5 6 5 4 4 4 4 3 3 3 2 2 2 2
5 5 9 10 9 9 10 10 10 10 8 10 10 4 2 2 3 3 3 4 5 4 4 5 5 5 4 4 4 6 5 5 5 5 5 4 3 3 3 2 2 2 2 2
5 7 10 12 10 9 10 12 13 12 10 10 10 5 3 2 2 3 4 3 3 4 4 4 4 4 4 4 2 4 4 4 4 4 4 4 2 2 2 3 2 2 2 2
5 9 11 13 14 12 12 14 14 12 11 11 9 6 3 2 2 3 3 2 2 2 3 4 4 4 4 4 3 3 3 3 3 4 4 4 3 2 2 2 2 2 2 2
3 8 10 13 15 14 14 14 13 12 10 10 9 6 1 4 3 2 3 3 2 2 3 3 4 5 4 4 3 3 3 3 2 3 3 4 3 3 2 2 2 2 1 1
6 7 10 13 14 14 15 11 10 9 8 8 8 3 3 3 2 1 1 3 2 2 3 2 2 3 3 3 2 3 3 3 2 3 3 4 4 4 3 3 2 2 1 1
8 7 7 11 12 14 7 5 6 7 5 5 3 1 1 1 2 1 3 4 3 3 3 2 2 3 3 2 2 2 3 3 3 3 3 3 3 3 3 3 2 2 2 2
8 7 7 8 11 10 8 5 5 5 4 4 2 1 2 2 2 4 5 4 3 3 3 2 2 2 3 3 2 2 3 3 2 3 3 3 3 3 3 3 3 2 2 1
7 6 7 9 10 8 4 7 7 6 4 1 1 0 1 2 1 1 3 4 4 4 3 2 2 2 2 2 2 3 3 3 2 2 2 2 2 2 3 3 2 2 2 2
7 7 9 11 10 5 5 8 7 5 3 6 4 3 1 2 2 2 3 4 3 3 2 2 2 1 2 2 2 2 2 2 2 1 2 2 1 1 2 2 2 1 1 1
6 5 6 7 8 4 6 6 4 3 6 7 7 6 4 5 4 3 3 3 2 1 1 2 2 1 1 2 2 2 2 1 1 2 2 1 1 1 1 2 2 1 1 1
4 3 3 3 3 2 3 4 3 5 5 6 6 6 2 2 2 2 2 2 2 2 1 1 2 2 1 1 1 2 2 2 1 1 2 1 1 1 1 2 2 2 2 2
3 2 3 4 4 3 3 4 4 5 5 6 6 6 3 2 1 0 1 1 1 1 2 1 2 2 1 1 1 2 2 1 1 1 1 1 1 1 1 1 1 1 1 1
6 5 4 5 6 5 4 5 6 5 5 5 4 5 4 1 1 1 1 2 1 1 1 1 1 1 1 1 1 2 2 2 2 1 1 1 1 2 1 1 1 1 1 1
6 4 4 4 5 6 6 7 7 7 6 6 5 5 3 1 1 1 1 1 2 2 2 1 1 1 1 1 1 1 2 2 2 2 1 1 1 1 2 2 1 3 2 3
Wind_Direction
218 228 235 234 234 250 264 266 267 260 241 225 235 237 235 212 199 203 198 180 175 176 170 159 158 157 155 150 153 155 160 157 158 160 169 164 167 163 148 137 130 128 124 126
225 230 240 244 246 254 263 263 263 259 247 237 242 249 237 222 210 204 200 180 170 165 164 161 160 162 159 159 161 161 163 164 169 163 170 170 165 169 147 130 140 146 148 142
235 238 237 244 247 250 254 259 264 271 271 253 248 247 241 224 209 198 203 189 174 168 162 161 162 163 165 168 170 172 168 167 173 167 171 171 152 164 147 151 152 152 146 139
245 244 245 245 248 249 255 255 264 267 264 257 249 255 236 211 201 193 196 193 179 162 156 163 166 167 169 169 169 166 163 165 169 172 176 179 179 178 172 159 151 155 166 161
251 244 244 245 253 257 259 268 272 271 265 266 253 256 236 203 201 189 180 182 167 154 154 159 170 171 171 168 167 162 157 165 169 180 182 190 186 173 156 148 147 161 165 168
259 255 253 253 254 260 267 270 267 262 259 256 252 255 244 226 193 184 167 168 162 151 152 155 156 154 161 163 164 159 158 164 170 180 184 198 190 172 160 156 160 175 167 165
247 247 238 246 252 244 250 259 258 253 244 253 261 249 225 158 130 160 154 148 149 141 139 141 145 156 159 158 155 155 158 164 171 179 183 185 188 180 170 168 176 185 168 152
252 245 229 226 246 257 248 250 252 260 260 263 260 253 203 136 124 133 133 125 135 138 136 136 143 153 155 154 152 154 157 162 168 172 172 170 182 188 178 180 177 183 164 147
277 273 248 231 236 251 254 254 263 264 266 270 258 243 215 141 138 136 135 130 129 122 119 120 134 137 138 146 148 153 154 156 164 165 161 157 165 182 168 163 179 168 151 145
279 283 275 254 238 236 250 261 268 262 267 271 265 249 216 184 164 151 147 141 136 136 132 128 133 131 129 135 136 139 138 147 152 151 164 166 169 174 157 166 160 136 125 121
274 277 276 266 251 251 246 246 257 266 265 270 271 274 28 138 137 147 144 132 123 132 131 135 133 120 134 136 133 130 134 137 148 156 156 150 159 159 167 162 146 140 138 151
277 279 278 271 268 263 259 254 255 262 269 274 276 267 11 80 97 121 126 120 122 122 124 135 135 142 154 142 139 133 134 146 151 148 146 149 151 156 168 158 149 147 155 173
314 285 274 264 257 250 254 257 261 262 266 269 268 243 154 106 116 105 93 111 112 109 120 121 127 129 113 97 126 139 143 148 148 146 148 141 158 162 157 150 152 165 172 181
270 268 270 273 278 284 276 267 257 253 254 263 268 253 199 118 83 66 55 67 93 112 113 117 117 118 119 125 141 143 153 149 150 148 148 147 156 149 152 157 158 167 187 189
264 265 269 273 281 283 280 279 271 260 263 266 271 260 207 146 143 138 137 141 122 118 119 123 125 126 131 137 140 145 149 146 148 152 149 148 149 142 145 158 166 172 191 191
269 279 283 277 272 273 270 271 275 267 261 262 272 281 340 125 101 129 153 139 123 117 123 122 132 131 136 136 150 154 123 118 135 151 150 146 153 159 159 163 166 166 166 167
270 274 277 274 272 273 263 263 264 274 275 269 265 288 10 57 75 31 96 118 111 97 94 106 121 134 131 132 138 131 133 132 151 156 159 161 164 170 171 175 173 169 170 200
252 265 268 269 269 262 269 289 278 274 289 291 282 4 39 51 89 42 96 106 91 89 90 92 94 104 114 114 110 141 147 138 155 160 168 166 166 172 171 173 178 182 186 206
233 238 258 267 265 259 270 297 295 282 278 307 313 20 344 32 65 63 59 70 72 81 87 83 87 113 114 126 131 152 151 149 148 157 167 162 170 174 173 174 179 187 187 208
220 226 245 259 269 270 305 331 328 288 250 338 336 19 293 310 286 79 53 55 65 74 78 80 80 113 122 130 148 168 161 145 147 156 160 155 161 174 169 161 172 178 185 213
227 229 242 255 261 262 312 325 319 281 319 350 2 353 355 359 15 93 86 69 67 71 77 93 106 125 135 147 166 167 163 165 169 165 150 134 126 159 154 140 152 182 204 206
258 250 250 263 263 267 352 340 353 350 349 2 8 8 34 65 65 82 86 91 95 90 103 119 120 135 148 157 172 165 166 170 175 170 152 143 148 196 155 137 160 195 185 185
255 265 268 270 272 28 5 336 340 345 345 351 350 352 11 88 80 89 91 109 134 145 136 125 143 143 150 153 171 174 153 150 166 171 160 160 168 164 169 177 183 201 187 213
286 302 290 283 279 308 308 313 330 334 330 336 339 326 331 20 22 42 125 109 103 121 130 127 139 148 150 155 171 150 142 149 165 180 174 178 168 170 184 189 202 199 211 241
306 302 297 285 297 309 305 321 323 316 320 322 321 311 318 356 305 265 143 133 134 119 115 117 115 155 174 152 137 157 155 153 159 180 180 199 194 173 133 64 30 49 39 31
298 299 293 296 318 308 307 316 323 326 325 320 320 324 320 317 231 228 186 156 153 142 126 118 127 135 171 185 173 155 156 162 169 198 191 217 206 174 170 156 96 44 78 106